Terminal Aerodrome Forecast
Issued by NWS

Home | Current Version | Previous Version | Text Only | Print | Product List | Glossary On
Versions: 1 2 3 4 5 6 7 8 9 10 11 12 13 14 15 16
000
FTUS45 KRIW 191700 RRA
TAFJAC
TAF
KJAC 191743Z 1918/2018 00000KT P6SM SCT003
     FM191900 21010G16KT P6SM FEW090
     FM200100 20006KT P6SM SKC
     FM200500 36006KT P6SM SKC
     FM201300 VRB03KT P6SM SCT080
      AMD LTD TO CLD VIS AND WIND=

USA.gov is the U.S. government's official web portal to all federal, state and local government web resources and services.